FENGYUN 1C DEB, 33701

Orbit data source: Space-Track

FENGYUN 1C DEB, 33701 is space debris in SSO originally from a launch on Mon, 10 May 1999 UTC launched from the Taiyaun Space Center, China (TSC). Fengyun 1C debris stems from the Chinese weather satellite Fengyun-1C, which was intentionally destroyed by a Chinese anti-satellite missile in 2007. This event dramatically increased the amount of space debris, with thousands of trackable fragments posing hazards to satellites and human spaceflight. The Fengyun 1C debris cloud has become a focal point in discussions about space sustainability and the need for international regulations to prevent the creation of new debris.

Loading next visibility...
Identifier
33701, 1999-025DGN
Orbit
SSO
Country
Flag of CNCN / PRC
Related business
Manufacturer
Unknown
Mission
Spacecraft
Bus & Motor
Unknown
Mass
Unknown
Launch date (UTC)
1999-05-10 (26 years ago)
Launch vehicle
Unknown
Launch site
Taiyaun Space Center, China (TSC)
Object type
Payload
Rocket body
Debris
Shape & HBR
Unknown shape, 0.1 m
Radar Cross Section
Small (<0.1 m²)

Expand to show TLE details & history
Last TLE update: 14 hours ago

TLE from 14 hours ago
0 FENGYUN 1C DEB
1 33701U 99025DGN 25288.84367484  .00004381  00000-0  26800-2 0  9992
2 33701  98.6613 246.1155 0136179 351.3886   8.4945 14.01860347896944
Epoch: 2025-10-15T20:14Z
TLE epoch observation values (Epoch: 2025-10-15T20:14:53.506Z)
Latitude
-0.00006°
Longitude
-82.21936°
Altitude
792.407 km
Speed
7.507 km/s
True Right ascension
16h 24m 27s
True Declination
0° 00' 00"
Sunlit
Object was in daylight at epoch
Visualization orbit readout
Latitude
Unknown
Longitude
Unknown
Altitude
Unknown
Speed
Unknown
Apparent Right ascension
Unknown
Apparent Declination
Unknown
Sunlit
N/A
Visualization observer readout
Local Sidereal Time
04:27:32
Azimuth
Unknown
Elevation
Unknown
Doppler factor
Unknown
Orbital elements
Apogee altitude
983.442 km
Perigee altitude
785.638 km
Semi-major axis
7,262.677 km
Eccentricity
0.01362
Inclination
98.6613°
RAAN
246.1155°
Arg. of periapsis
351.3886°
True anomaly
8.72895°
Mean anomaly
8.4945°
Eccentric anomaly
8.61133°
Mean motion
3.5067 °/min
Orbital period
102.66 mins
BSTAR
0.00268
Loading maneuver chart data...
Computing Atmospheric mass density...

Documentation

Showing up to 5 results
|